RH
2 2 2 2 2 2 2 2 2 2 2 2 2 2 2 3 3 4 4 5 6 6 7 7 8 8 7 8 13 19 23 23 23 23 21 16 9 5 7 8 9 9 7 6 5 5 7 8 11 15 16 16 17 17 27 50 69 80 78 67 61 64 68 70 69 69 70 70 68 68 69 70 69 69 74 81 87 88 85 85 82 79 79 72 63 63 76 75
2 2 2 2 2 2 2 2 2 2 2 2 2 2 2 2 2 2 3 4 5 6 6 7 7 8 8 7 8 13 20 22 23 26 23 16 11 7 6 7 7 8 7 7 6 5 5 8 10 14 16 16 17 17 24 40 56 65 64 60 60 64 68 70 68 66 66 66 65 66 66 68 69 68 73 77 80 80 75 77 78 76 72 67 61 58 66 66
2 2 2 2 2 2 2 2 2 2 2 2 2 2 2 2 2 2 2 3 3 4 5 6 6 7 8 8 7 8 14 20 23 27 24 17 14 10 6 6 7 7 7 8 8 7 5 6 8 11 14 15 16 17 21 33 50 59 58 57 61 63 67 69 67 64 65 64 65 68 66 68 69 67 72 74 73 71 69 70 71 70 67 64 61 58 61 62
2 2 2 3 3 3 3 3 2 2 2 2 2 2 2 2 2 2 2 2 2 3 3 4 5 6 7 8 8 7 9 14 19 24 24 20 17 13 7 5 6 7 8 9 10 9 7 5 6 8 11 14 16 16 19 26 43 54 54 58 61 61 66 70 67 63 63 64 66 69 69 66 65 65 66 66 66 66 65 67 70 70 68 63 59 57 61 63
3 3 3 3 3 3 3 3 3 2 2 2 2 2 2 2 2 2 2 2 2 2 2 3 4 5 6 7 7 8 7 9 15 21 23 23 21 17 11 6 5 7 8 8 9 8 7 5 5 7 9 13 15 16 17 21 33 45 52 61 61 60 65 67 65 64 62 64 66 67 69 68 65 63 60 61 67 71 69 65 68 72 71 68 64 60 59 63
4 4 4 3 3 3 3 3 3 2 2 2 2 2 2 2 2 2 2 2 2 2 2 2 2 3 5 6 6 8 7 9 17 21 22 23 22 20 16 10 5 6 8 8 8 8 7 5 5 6 8 11 13 15 16 19 26 37 52 62 61 61 65 64 63 63 61 63 67 67 68 70 67 64 61 63 68 72 73 67 68 75 76 75 74 69 62 60
5 4 4 4 4 3 3 3 2 2 2 2 2 2 2 2 2 2 2 2 2 2 2 2 2 2 3 4 5 7 6 8 14 19 22 22 20 18 17 14 8 6 8 8 8 8 7 5 5 6 7 9 12 14 15 18 22 31 50 62 61 63 65 63 62 61 63 63 66 67 64 65 67 67 64 64 67 69 73 73 73 75 76 77 77 76 69 62
4 4 4 4 4 4 4 3 3 2 2 2 2 2 2 2 2 2 2 2 2 2 2 2 2 2 2 3 4 5 6 5 7 12 19 22 21 17 15 15 10 6 7 7 8 8 7 5 5 6 7 8 11 13 13 17 20 25 46 62 62 64 65 63 61 61 64 62 63 64 62 63 67 69 67 66 69 68 72 77 77 73 69 72 76 75 71 65
3 4 4 4 4 3 4 3 3 3 3 3 3 3 3 3 3 3 2 2 2 2 2 2 2 2 1 2 3 4 4 5 5 6 12 19 23 20 16 14 10 7 7 7 9 9 9 6 4 5 7 8 10 11 12 16 20 21 40 63 65 64 67 65 62 63 65 63 60 60 62 65 67 68 66 68 69 67 70 74 76 74 68 67 69 69 66 64
3 3 3 3 3 3 4 3 3 3 3 3 3 4 3 4 4 3 3 3 2 2 2 2 2 2 2 2 2 3 4 5 6 5 7 13 21 24 21 16 9 7 7 7 9 9 8 8 5 5 6 8 9 10 11 14 20 22 33 58 67 65 68 67 62 64 67 64 60 59 62 65 67 66 63 65 64 64 67 69 72 75 74 69 64 65 64 62
3 3 3 4 4 4 4 4 4 4 4 4 4 4 4 4 4 3 3 3 3 3 2 2 2 2 2 2 2 2 4 5 6 6 6 8 16 24 25 21 11 7 8 7 9 9 9 9 7 5 5 7 8 9 11 12 18 24 28 48 66 67 67 66 62 65 66 64 62 61 63 64 63 60 59 63 62 61 63 65 69 72 75 73 65 63 61 59
3 3 3 4 4 4 4 4 4 4 5 5 5 4 4 4 4 3 3 3 3 3 3 2 2 2 2 2 2 2 3 4 6 8 9 9 14 21 26 24 13 7 9 9 9 10 11 11 9 7 5 6 8 8 11 11 14 23 28 38 57 65 66 64 61 65 65 62 65 64 63 62 55 52 57 61 59 60 61 63 67 69 73 75 69 63 59 55
4 4 3 4 4 4 4 4 4 4 5 5 5 5 5 5 4 4 3 3 3 3 3 3 2 2 2 2 2 2 2 3 5 7 9 10 14 21 26 25 15 8 9 11 12 12 12 13 12 10 7 7 8 9 13 13 11 19 26 32 46 59 64 62 60 64 64 61 64 65 63 58 50 51 57 58 57 58 58 58 62 65 69 73 69 62 59 54
4 4 4 4 4 4 4 3 3 4 5 5 6 5 4 5 4 4 3 3 4 4 4 3 3 3 3 3 3 3 2 2 4 4 7 8 12 21 27 24 16 9 10 11 13 14 14 14 14 12 10 8 9 11 15 18 14 14 23 31 41 56 62 60 62 63 63 62 63 65 61 54 51 54 57 56 57 57 56 56 57 61 64 67 65 59 57 55
4 4 4 4 4 4 3 3 3 3 4 5 5 6 5 5 4 4 3 4 4 4 4 3 3 3 3 3 4 4 3 2 3 4 6 6 10 19 26 24 16 11 11 12 14 16 17 17 16 14 11 9 10 15 20 21 19 16 26 36 37 51 61 58 61 63 61 62 63 65 60 51 51 56 57 56 57 57 57 56 55 57 59 62 62 55 54 56
4 3 3 4 3 3 3 3 3 3 3 4 5 6 5 5 5 5 4 4 5 5 4 3 4 5 5 6 6 7 7 4 3 5 7 7 11 20 25 23 15 12 13 13 15 17 19 19 19 16 13 11 9 15 24 30 31 26 30 40 35 41 57 58 59 61 60 61 61 63 59 51 50 54 56 56 57 58 57 56 55 55 56 59 60 57 52 53
3 3 3 3 3 3 3 3 3 2 2 3 4 5 5 6 6 6 5 6 6 5 4 5 7 8 9 11 11 11 11 10 6 6 8 9 14 23 26 22 15 13 15 15 17 19 20 20 20 19 16 14 9 11 27 38 43 38 31 36 34 32 47 58 58 59 60 60 59 60 57 52 50 52 54 55 55 57 56 55 54 54 54 56 58 59 55 50
3 3 3 3 3 3 2 3 3 2 2 2 3 4 5 6 6 7 7 7 6 5 6 7 8 9 11 13 14 14 13 13 10 7 9 13 19 27 28 21 15 14 17 17 19 19 21 21 20 22 19 16 13 10 25 39 39 37 33 34 37 33 39 53 57 56 57 58 57 57 55 52 51 50 51 52 53 54 55 55 55 54 54 55 56 58 57 51
3 3 3 2 2 2 2 2 2 2 2 2 2 3 5 6 8 8 8 7 7 6 7 7 7 9 12 13 15 17 14 14 14 10 10 16 24 30 28 23 16 15 18 18 20 20 21 23 22 23 19 16 14 8 19 34 29 25 30 34 37 34 34 45 55 54 53 55 55 54 53 51 50 48 46 47 49 51 54 56 56 56 55 55 55 56 57 52
3 3 2 2 2 2 2 2 2 2 2 2 2 3 5 7 8 8 8 7 7 6 6 6 6 7 11 14 17 21 19 15 15 14 11 14 26 32 29 25 18 17 19 17 18 20 21 24 21 18 16 15 15 10 11 20 20 23 33 39 41 36 32 38 48 52 51 51 51 51 50 49 48 45 43 41 42 45 50 54 55 55 54 53 53 53 54 53
2 2 2 2 2 2 2 2 3 2 2 2 2 2 4 6 7 7 8 8 8 8 7 7 6 7 10 15 19 22 21 18 16 16 14 12 22 32 30 26 21 18 18 18 18 19 22 23 19 14 14 14 14 13 10 9 18 31 39 44 49 46 37 34 40 47 50 49 48 48 46 46 46 43 40 39 39 40 43 48 51 52 51 50 50 51 52 56
3 2 2 2 2 2 2 2 3 3 2 2 2 3 4 6 8 8 8 9 9 9 8 8 9 11 12 16 21 21 22 21 17 17 18 15 18 29 32 28 24 20 17 19 21 21 23 20 15 14 15 15 13 13 12 7 14 31 43 45 48 50 41 32 35 43 49 49 48 47 45 44 43 39 38 39 39 39 41 44 46 48 49 48 46 47 49 54
2 3 2 2 2 2 2 3 4 4 3 3 3 4 7 9 10 10 10 10 10 10 11 11 14 17 18 20 22 21 22 23 19 17 19 19 18 24 32 31 27 24 20 20 21 22 23 18 14 15 16 16 16 14 13 10 9 21 41 48 46 47 44 36 36 42 48 50 48 47 46 44 42 38 37 38 39 40 42 44 45 47 49 49 48 47 47 49
3 3 2 3 3 2 3 4 5 6 6 6 6 8 10 11 12 12 12 11 11 11 13 15 17 19 20 18 16 17 21 22 21 19 18 22 23 22 28 32 31 29 25 22 21 21 21 18 16 18 18 18 18 16 13 15 15 15 27 44 47 45 45 42 40 41 44 46 47 47 46 44 43 39 36 37 39 41 43 45 46 47 49 52 53 51 49 50
3 3 3 3 4 3 4 5 8 10 9 9 10 13 14 16 17 16 14 13 12 13 15 17 16 17 17 15 13 13 16 20 22 22 19 21 26 26 27 31 33 36 32 26 24 22 21 20 21 22 20 17 18 18 13 15 25 22 14 28 43 45 45 44 42 42 41 41 43 44 43 43 42 38 36 36 38 41 43 45 45 45 49 52 52 50 48 48
3 4 4 4 5 6 7 10 13 13 14 16 16 18 20 21 20 18 16 14 14 15 17 17 16 16 16 15 15 12 13 17 17 20 20 20 25 30 31 30 33 38 37 35 33 28 23 21 24 27 24 20 19 20 15 13 27 30 11 11 30 42 46 46 44 44 42 39 40 40 40 41 40 39 36 35 36 38 40 42 43 44 47 49 49 49 47 45
4 5 5 6 9 10 12 16 17 16 19 22 23 24 26 26 24 22 19 16 18 21 22 22 20 18 16 16 15 15 17 18 17 19 20 20 23 28 33 34 33 35 38 44 47 39 29 24 25 29 29 27 24 20 17 13 20 26 14 6 16 30 42 46 45 44 42 41 40 38 38 38 38 38 37 35 35 36 37 38 39 40 42 43 44 47 47 45
5 6 8 10 13 16 19 21 22 23 25 27 28 29 29 29 27 24 20 18 23 27 25 23 22 20 19 18 16 16 16 15 18 21 19 20 23 24 29 34 35 35 36 44 52 47 36 29 28 28 29 30 27 20 17 14 16 21 20 15 10 16 32 43 46 44 43 43 42 40 39 38 37 38 37 35 34 34 35 35 35 36 37 39 40 43 45 46
6 8 11 14 19 25 27 27 27 29 30 31 32 32 32 30 27 24 21 21 27 30 25 23 22 21 21 19 17 16 13 13 16 19 19 22 26 24 25 30 35 37 38 41 49 50 42 36 34 31 28 27 25 23 21 18 17 16 20 25 20 17 28 39 44 44 44 44 44 43 42 39 37 37 36 35 34 34 34 34 34 35 36 37 37 39 42 45
8 11 15 20 26 31 33 33 33 34 35 36 36 35 33 29 26 25 23 23 28 30 26 26 25 23 22 20 17 15 12 13 14 16 20 24 28 28 27 28 31 36 39 41 46 49 46 42 42 40 35 28 23 24 25 23 21 15 17 29 35 33 35 39 41 43 44 45 44 44 43 41 39 38 37 35 33 34 34 34 34 34 35 36 35 36 38 42
10 15 20 26 30 33 36 37 38 39 40 39 38 36 33 28 26 26 24 24 27 29 29 29 27 26 24 22 19 16 12 11 12 18 26 28 29 31 31 30 31 33 37 41 44 46 46 45 46 46 43 37 28 26 28 27 26 22 23 31 39 41 41 41 42 43 43 41 40 40 41 40 40 39 38 35 33 33 33 34 34 33 34 34 33 34 36 39
15 21 26 30 32 34 38 40 40 41 41 40 39 37 33 29 28 26 25 27 29 31 32 30 30 28 27 25 23 19 14 12 13 19 28 32 31 33 33 34 34 34 36 38 40 43 44 44 46 46 46 43 37 33 32 33 32 29 28 31 33 37 41 41 41 41 39 37 37 37 37 37 38 38 39 38 36 34 33 33 34 34 33 31 30 31 33 36
21 26 29 32 34 38 41 42 44 43 42 41 40 38 34 30 31 31 28 29 31 34 34 32 32 31 30 30 26 20 16 16 18 22 28 32 34 37 37 37 36 36 37 39 39 40 41 41 43 45 45 45 42 38 37 37 37 34 31 31 30 32 39 40 38 38 37 35 34 34 34 34 34 34 36 35 34 34 33 33 33 34 33 31 28 28 30 32
26 29 33 35 38 41 42 45 48 47 44 42 41 40 34 30 35 38 34 32 34 35 35 35 34 34 33 31 28 23 18 16 19 24 30 35 39 44 46 44 42 39 39 42 41 39 39 38 39 41 42 44 43 41 39 38 38 36 35 34 32 30 34 35 34 35 34 31 31 32 32 32 31 31 31 29 30 32 32 32 33 33 33 32 29 28 30 31
29 33 37 40 42 44 45 46 49 48 45 42 43 41 34 33 38 42 40 37 36 36 36 36 35 35 34 32 30 26 22 19 18 19 28 38 42 47 51 51 49 45 43 45 45 43 41 38 39 40 40 42 43 41 41 39 35 35 38 39 36 33 33 32 31 33 31 28 28 30 33 33 29 27 26 27 29 29 30 30 31 32 33 31 28 27 29 31
34 38 41 45 48 49 50 49 48 48 44 41 44 41 37 39 41 42 41 39 38 37 37 37 37 37 36 35 33 31 29 24 18 18 27 37 42 45 50 54 52 49 47 47 48 49 47 42 40 41 39 39 40 41 43 41 37 38 39 39 39 39 38 33 32 35 34 31 30 29 29 29 24 19 18 21 26 28 28 29 29 31 32 30 27 26 28 31
39 42 46 50 53 53 53 51 47 44 38 39 45 44 41 43 42 41 41 40 39 39 39 39 40 40 38 37 36 34 33 28 24 25 26 34 46 49 49 54 54 51 47 47 51 52 51 47 42 40 39 37 38 39 41 41 41 41 38 37 40 42 40 36 35 36 35 33 33 29 24 23 23 22 18 16 20 25 27 28 29 30 31 30 27 25 27 29
45 48 53 57 56 56 54 48 42 34 31 40 48 48 47 46 45 44 43 42 42 41 41 42 43 44 42 40 39 37 35 30 28 28 25 34 51 55 51 53 56 54 46 44 49 50 51 50 44 40 39 37 36 38 39 41 42 42 40 39 40 38 38 40 40 38 36 34 32 30 25 23 23 24 21 18 17 21 25 27 29 29 29 30 28 25 25 27
52 53 57 60 59 58 53 44 37 31 33 45 51 50 51 51 50 50 47 46 45 42 43 44 44 46 45 43 41 37 35 30 25 27 33 41 50 54 55 54 55 55 48 43 45 46 51 57 50 42 40 37 36 36 36 39 42 43 43 42 40 37 37 40 40 37 37 36 34 31 27 24 23 22 23 22 20 20 23 25 27 28 28 29 27 24 23 25
57 56 59 63 62 59 53 46 41 35 39 51 53 51 54 55 55 55 51 48 47 45 46 47 47 48 47 44 41 37 35 30 23 26 35 41 45 50 51 50 49 50 46 42 41 42 53 65 60 47 41 38 38 38 35 37 41 42 43 42 40 39 38 38 39 38 35 35 35 33 28 25 22 19 18 19 18 17 19 21 22 23 25 28 26 23 23 23
60 58 60 63 61 59 56 52 45 39 45 54 54 52 56 58 60 60 56 52 50 49 50 51 51 50 49 48 45 42 38 32 26 26 31 38 46 50 46 42 41 39 38 38 41 45 55 68 67 54 46 42 39 37 35 35 39 43 44 43 41 40 39 37 38 38 35 34 35 34 30 27 23 18 15 15 13 12 13 15 17 19 23 26 26 23 22 22
65 61 61 63 62 60 59 56 48 43 51 58 57 57 59 61 64 65 61 57 54 54 56 58 59 57 57 55 52 48 42 36 31 31 36 39 43 46 43 39 36 33 34 38 44 50 55 66 70 58 46 43 39 38 38 36 39 43 44 44 42 42 41 39 39 39 38 36 34 33 32 30 27 22 18 17 15 12 11 12 13 17 21 25 25 23 22 21
71 69 68 66 63 63 62 59 51 47 55 60 61 63 64 64 65 67 66 64 62 61 61 63 65 66 65 63 58 52 47 42 38 39 43 37 34 40 43 41 36 36 41 43 48 57 62 71 75 61 46 42 39 38 40 40 40 43 44 44 43 43 42 41 40 38 37 36 34 35 35 33 31 24 18 18 18 16 14 12 13 15 18 22 23 23 22 21
75 76 76 69 64 65 65 62 56 51 55 62 67 70 71 69 68 67 68 68 68 70 70 70 71 72 71 69 65 60 57 53 49 48 47 39 35 40 44 43 42 45 51 51 58 72 78 82 80 62 46 43 43 41 41 42 42 43 43 43 43 43 43 42 41 37 36 36 35 36 35 34 33 29 21 17 17 17 17 14 14 14 15 18 20 21 21 19
79 81 82 75 67 63 61 63 64 57 55 62 69 75 78 78 76 73 73 72 72 76 78 79 82 84 80 74 71 68 67 65 59 52 47 41 40 42 45 50 54 57 58 56 63 78 85 88 86 70 53 46 47 49 48 47 46 43 43 43 43 43 41 42 43 39 35 35 34 34 34 33 33 31 26 21 17 16 17 16 15 15 15 15 16 17 18 18
81 84 86 81 75 67 61 66 70 63 57 60 66 71 78 83 84 82 80 82 83 83 83 85 89 90 86 81 79 76 72 71 68 60 51 46 46 48 51 56 59 60 62 63 68 78 86 88 81 71 63 56 54 57 55 51 48 46 45 44 43 43 42 42 44 43 41 38 33 32 32 31 30 28 27 25 19 15 15 15 14 14 13 14 14 14 15 15
83 88 87 80 78 78 75 75 78 71 62 61 63 68 73 78 83 85 86 88 90 88 88 90 89 90 90 87 84 80 75 71 67 61 56 52 50 52 55 56 57 58 61 66 71 78 89 92 76 61 57 53 52 55 55 53 51 48 46 44 43 44 43 42 44 45 44 40 35 32 30 29 29 27 24 23 21 18 16 16 15 14 12 13 13 13 13 14
84 91 90 79 78 85 84 83 83 78 71 68 69 74 78 80 80 83 86 89 90 89 89 91 91 92 95 92 86 82 77 72 68 62 58 56 54 55 56 52 52 57 60 66 74 81 91 93 79 62 51 44 44 48 51 53 53 49 47 44 42 43 43 43 45 46 45 46 43 35 30 30 30 27 25 23 22 21 19 18 17 15 14 13 13 13 13 13
83 89 87 82 87 92 90 86 86 86 81 78 78 79 80 82 81 82 83 84 88 89 88 91 94 94 95 95 89 86 82 82 81 69 60 61 61 59 58 53 51 56 59 65 75 80 85 86 78 70 59 42 37 43 49 52 52 51 48 43 42 42 41 42 43 44 49 54 49 37 32 32 30 28 27 24 23 23 21 20 19 17 17 16 14 14 13 12
83 86 84 88 97 97 91 87 88 91 85 80 86 88 82 81 82 83 86 83 83 88 89 92 95 94 94 94 90 89 89 90 88 74 63 67 64 59 64 63 57 59 60 63 69 73 80 85 84 88 81 54 35 38 46 52 55 53 48 44 42 40 40 42 44 49 55 54 46 38 33 32 31 29 28 25 23 22 20 20 20 19 18 17 16 15 13 12
81 84 84 92 100 98 92 86 84 89 87 84 91 94 87 85 81 77 82 83 79 84 89 91 93 91 89 88 85 86 86 82 78 69 65 70 66 62 69 69 63 66 68 69 75 79 85 88 86 93 93 71 49 43 47 55 59 57 50 45 42 41 42 43 49 66 75 63 46 38 34 35 35 31 27 26 23 22 20 20 19 19 18 18 17 16 14 12
76 78 82 90 99 99 91 86 87 90 90 90 95 95 91 93 87 76 79 84 85 91 90 84 83 79 75 77 79 78 76 70 65 63 65 70 68 65 69 67 65 72 76 77 82 88 92 91 88 91 92 81 67 58 58 62 62 60 53 42 38 41 41 39 51 81 96 77 50 37 35 39 39 32 28 28 24 22 22 20 19 18 18 18 17 16 14 12
Wind_Speed
14 14 15 15 15 15 14 14 14 14 13 13 12 12 12 11 11 11 13 14 13 11 10 10 10 10 9 8 8 9 8 8 6 3 6 11 15 19 24 26 25 24 23 21 23 26 27 27 26 24 22 20 18 15 14 14 14 13 11 9 7 5 3 4 6 5 4 3 3 3 6 7 6 6 7 8 9 10 10 10 10 10 9 10 13 14 14 17
15 15 16 16 16 16 16 15 15 15 14 14 13 13 12 12 11 11 12 13 13 12 11 10 10 11 11 9 8 8 8 8 6 5 10 13 13 15 21 26 25 24 23 22 21 22 25 26 26 25 23 21 19 17 16 15 15 14 12 10 8 6 5 6 7 6 5 5 4 4 5 6 6 5 7 7 8 9 8 8 8 9 10 12 15 16 15 17
17 17 17 17 18 18 18 17 16 15 15 15 14 13 13 13 12 11 11 12 13 12 12 11 11 11 11 10 9 8 7 8 8 9 13 11 10 13 18 24 25 23 22 20 18 18 19 22 23 24 23 21 20 19 17 16 15 14 12 10 8 7 6 6 6 6 4 5 5 5 5 6 7 6 7 7 6 7 5 3 3 5 9 12 14 15 15 17
18 18 18 18 18 19 18 18 17 17 16 16 15 14 13 13 13 12 12 12 12 12 12 11 11 11 11 11 10 9 7 8 10 12 14 12 10 11 15 22 24 23 23 21 20 19 19 21 23 23 23 22 21 20 20 17 15 14 10 9 10 9 8 7 7 7 6 6 5 5 4 4 6 6 6 6 4 2 2 3 3 3 6 10 11 14 15 16
18 19 19 18 18 18 18 18 18 17 17 16 15 14 14 13 13 12 12 12 12 12 12 11 11 11 11 11 10 10 9 8 10 11 13 14 13 13 14 18 20 23 24 24 23 22 23 25 26 26 25 24 23 22 21 18 16 14 9 11 14 12 10 9 9 9 8 7 4 4 3 3 6 5 5 7 6 6 4 6 6 4 5 7 7 10 14 16
18 19 19 18 18 18 18 18 18 18 17 16 15 14 14 13 13 13 13 12 12 12 12 12 11 11 11 11 11 11 10 8 8 9 12 13 14 13 14 15 17 22 25 26 25 25 26 28 29 29 28 26 25 24 21 19 18 14 10 13 17 15 13 11 11 10 9 7 6 4 3 4 5 4 4 7 7 6 7 8 7 5 6 8 8 8 10 15
19 19 19 19 18 18 19 18 18 17 17 16 15 15 15 14 14 13 13 13 12 12 12 12 11 11 11 11 11 11 11 11 9 9 11 12 12 13 13 14 16 20 26 28 27 26 26 28 30 30 28 27 27 25 23 21 20 16 12 14 18 17 14 14 13 12 10 9 8 6 6 5 5 4 4 5 5 5 6 6 6 5 8 10 10 8 8 12
20 19 19 19 19 18 19 19 18 17 17 17 16 16 16 16 16 14 14 14 13 13 13 13 12 11 11 11 12 12 12 13 11 11 13 12 12 11 10 12 16 19 24 27 26 24 23 25 28 30 29 28 27 26 24 22 21 18 13 14 18 18 16 17 16 13 12 10 8 8 7 5 5 6 5 5 5 5 5 5 4 4 5 8 9 9 9 13
20 20 19 19 19 19 19 19 19 18 18 18 18 18 19 18 18 16 15 15 14 14 13 13 12 11 11 11 12 12 13 15 14 14 15 15 15 13 10 11 15 18 22 25 25 25 23 23 24 28 29 28 27 25 24 24 23 18 14 14 18 19 18 18 17 15 13 12 11 9 7 6 6 7 8 8 7 7 6 5 4 3 3 4 7 10 11 14
21 21 20 19 19 19 19 19 19 19 19 20 20 20 20 20 19 18 16 16 15 15 15 14 13 12 11 11 12 12 14 16 17 16 16 17 18 17 13 11 14 17 20 24 26 25 22 18 17 23 26 25 26 25 25 26 24 19 15 17 20 20 20 21 19 17 15 15 13 10 8 8 8 9 10 10 9 8 8 7 6 4 3 3 5 9 11 14
22 21 20 20 20 19 19 19 19 19 19 20 20 20 20 20 19 18 17 16 16 16 16 15 14 13 12 12 12 12 15 17 18 18 17 17 18 18 16 13 15 16 18 21 24 22 18 15 14 19 24 25 26 26 27 28 24 20 18 19 22 22 22 23 22 17 15 15 14 11 9 11 11 10 11 11 8 7 7 7 6 6 5 4 5 8 12 15
21 21 20 20 20 20 20 20 19 19 19 20 19 19 19 19 19 17 16 16 16 16 16 16 15 13 13 13 12 11 13 17 18 18 18 18 18 19 18 16 17 17 17 18 19 20 19 17 15 16 21 24 26 25 26 28 25 23 20 20 22 23 24 25 23 17 16 16 14 12 11 14 13 10 11 11 9 8 7 7 7 7 6 6 6 8 12 15
22 22 21 20 20 20 20 20 20 19 20 20 19 19 18 18 17 16 16 15 16 17 17 17 15 14 14 14 13 10 12 16 18 18 19 19 19 19 20 19 19 20 20 19 18 20 19 18 16 17 20 22 24 24 23 24 26 26 22 20 20 22 26 27 22 19 16 16 15 11 12 17 13 10 11 11 9 9 8 7 8 8 8 8 8 9 12 16
22 23 23 22 22 21 21 20 20 20 20 20 19 18 17 16 15 15 15 15 16 17 17 16 14 13 15 15 14 11 11 14 17 19 20 20 20 20 21 21 21 21 22 22 21 20 19 19 18 19 21 22 23 23 22 20 23 27 24 23 22 20 26 27 22 20 17 16 16 11 14 18 14 11 12 11 10 9 7 7 7 8 9 9 9 10 13 17
23 24 24 23 22 23 22 22 21 21 20 20 19 18 17 15 14 15 15 15 16 17 16 15 13 13 15 15 13 12 11 13 16 19 20 21 21 21 22 23 23 23 23 24 24 22 21 21 21 22 23 23 23 22 21 19 20 26 23 22 25 23 25 28 24 22 19 17 16 13 15 18 15 14 13 11 11 10 8 7 8 8 9 9 10 11 12 16
23 24 24 23 23 23 23 22 21 21 21 21 20 19 17 15 15 16 15 16 16 15 14 13 11 11 12 13 13 11 11 13 15 18 20 21 22 22 24 24 25 25 25 26 25 24 24 23 23 23 22 23 25 23 20 18 18 23 22 20 26 28 26 28 27 24 21 18 18 17 16 17 15 14 13 12 12 12 11 9 9 9 9 10 10 11 13 16
23 24 24 24 23 23 23 22 21 20 20 20 20 19 18 16 15 16 16 16 14 13 13 11 9 10 9 10 11 10 11 13 15 18 20 21 22 23 24 26 27 28 27 27 26 25 25 26 25 25 24 25 27 26 20 19 19 22 25 24 26 29 28 30 29 25 22 21 21 20 21 21 16 13 14 14 13 14 13 11 10 11 10 10 11 12 14 16
22 24 24 24 23 23 23 22 21 21 20 19 20 20 19 16 14 16 16 14 12 12 11 8 9 8 6 8 9 9 10 13 16 19 20 21 22 23 23 24 27 29 28 28 27 27 27 27 27 27 29 28 29 32 26 20 23 26 27 26 25 26 28 31 28 23 24 24 22 21 23 24 20 15 15 15 15 16 15 14 13 13 12 11 12 13 14 17
22 23 24 24 23 22 22 21 21 21 20 19 19 19 18 16 14 14 14 13 11 10 8 8 9 7 6 10 11 10 9 11 15 19 22 23 23 24 23 23 27 29 29 30 29 30 30 29 31 32 35 36 35 38 34 23 24 30 30 26 25 27 29 32 30 23 21 22 23 23 23 24 21 18 17 16 17 17 18 18 17 16 16 14 14 14 15 16
22 23 24 24 23 23 22 22 22 21 20 20 19 19 17 15 13 10 11 12 11 9 9 10 10 8 8 10 11 10 8 8 12 17 22 25 25 24 24 24 27 30 31 31 32 32 31 32 37 39 40 40 37 37 36 30 25 25 27 26 24 28 30 30 31 26 20 19 21 24 23 23 22 20 19 18 18 20 21 21 20 18 16 16 15 14 14 15
22 22 24 24 24 23 22 22 22 22 21 21 20 20 18 17 14 10 10 12 12 11 11 11 11 9 9 9 9 10 9 9 9 13 19 24 26 25 26 27 28 33 33 31 32 32 33 36 39 41 39 38 36 34 34 33 27 20 22 25 22 25 30 30 30 27 22 20 20 21 22 24 24 21 20 21 22 23 23 22 20 18 16 15 15 15 14 14
21 22 22 24 24 23 23 23 22 22 22 21 20 19 18 17 16 14 14 13 14 13 11 10 10 9 9 9 9 10 9 8 8 11 16 22 27 26 27 29 29 32 34 33 33 33 35 40 40 39 37 34 32 32 32 33 31 23 19 23 22 23 29 32 32 29 23 22 22 21 23 25 25 22 20 22 24 23 22 22 20 18 17 15 13 14 16 16
22 21 22 23 24 23 24 23 22 22 21 20 19 17 16 16 16 16 15 14 14 13 11 10 9 8 8 7 8 9 8 7 8 10 14 19 26 29 28 30 30 31 34 36 37 37 38 39 39 39 36 32 32 32 32 32 34 31 24 22 22 24 26 23 25 28 26 22 22 22 24 25 26 24 23 23 23 23 22 23 23 22 21 18 15 15 15 16
22 22 21 23 24 24 24 23 22 22 21 20 19 18 16 15 15 16 16 14 13 13 11 9 8 7 6 6 5 6 6 8 8 9 12 17 23 29 30 30 30 31 34 37 38 40 39 34 35 38 37 34 33 33 33 32 33 36 34 28 24 26 27 20 17 20 23 22 24 23 21 26 30 28 26 25 24 25 25 25 26 27 25 24 22 19 16 16
23 23 22 22 24 24 24 23 22 21 21 21 20 19 16 14 14 14 15 14 11 12 10 8 8 8 6 5 4 4 6 9 9 9 12 16 21 26 28 30 30 31 34 35 35 39 39 35 32 30 33 38 36 34 37 33 28 31 39 39 30 26 25 23 20 15 14 16 20 21 16 20 30 33 29 26 24 26 28 27 27 26 26 26 25 20 17 16
23 24 23 23 23 24 24 23 22 21 20 20 20 18 15 14 13 12 14 13 9 9 10 8 8 8 6 5 5 7 8 9 11 11 12 14 19 23 25 28 30 31 33 32 32 36 38 39 35 21 19 32 38 37 37 35 27 27 38 43 36 29 24 22 21 15 12 12 14 16 14 13 21 30 32 27 27 28 28 27 26 26 26 26 24 22 19 17
24 24 24 24 23 24 24 23 23 23 21 19 18 17 14 13 11 11 11 9 6 7 8 8 7 8 8 9 9 8 5 7 9 10 11 13 15 20 23 26 29 30 32 30 27 33 38 39 39 28 15 19 32 39 40 37 30 28 36 39 37 35 31 26 22 17 15 16 17 16 14 12 16 26 31 27 26 28 29 28 26 26 26 24 23 23 21 18
25 25 24 24 23 23 24 23 23 23 22 20 19 16 14 12 10 8 5 3 3 5 6 7 8 9 10 12 12 8 6 7 8 9 11 13 13 16 20 24 27 27 30 31 26 28 35 38 39 38 27 22 26 32 37 39 35 29 28 28 33 36 35 31 25 21 18 17 21 19 15 12 14 24 31 27 26 28 29 30 27 26 25 23 23 23 22 20
26 25 24 23 22 22 23 24 23 22 21 20 18 16 13 11 8 4 2 2 4 5 6 7 8 9 9 10 11 10 10 10 9 11 13 13 12 13 16 18 23 24 27 32 29 24 30 34 33 35 36 36 31 23 26 34 37 34 23 14 19 27 30 28 23 22 20 18 22 22 18 13 13 21 28 28 29 32 30 29 28 27 25 23 23 22 22 21
26 26 25 23 21 21 21 22 22 22 20 18 17 14 11 9 5 2 2 4 4 4 7 8 9 11 10 9 9 9 10 11 10 12 14 14 12 11 11 13 19 23 24 29 31 30 32 30 26 27 31 36 36 26 19 21 29 36 27 11 8 15 22 24 23 21 17 16 22 26 22 15 15 20 27 32 35 34 32 29 27 26 25 24 23 22 23 23
26 26 25 24 22 21 20 18 18 19 18 16 15 13 10 7 3 3 3 4 5 5 7 8 9 11 11 10 9 8 9 11 11 12 12 12 12 10 10 12 17 21 24 27 28 30 34 32 26 24 22 23 29 31 24 16 20 29 26 16 9 10 15 17 19 20 15 11 18 27 26 19 20 22 26 36 37 32 32 32 29 26 25 25 23 23 24 24
25 25 25 24 24 23 21 18 15 15 15 14 12 11 9 5 4 6 5 4 4 4 5 7 11 13 13 13 11 10 8 9 10 11 11 11 10 10 11 14 17 17 19 24 25 25 30 35 32 23 16 14 20 28 28 20 21 26 25 22 16 9 9 11 11 13 13 11 12 18 20 21 28 29 30 38 37 32 33 33 32 29 26 24 22 21 23 25
25 24 24 25 24 24 23 19 15 13 14 12 11 10 7 3 4 8 9 5 3 4 6 9 12 14 16 14 12 10 7 6 7 8 9 9 9 10 12 15 18 17 15 19 23 22 23 29 33 28 18 15 19 24 26 24 25 28 26 26 22 11 7 9 9 8 10 10 10 14 16 18 27 31 37 47 44 38 36 32 32 32 29 27 23 20 21 24
25 25 25 25 25 24 22 18 15 13 13 13 10 7 5 5 4 6 8 7 7 8 9 9 11 14 15 14 11 8 6 6 6 5 5 6 7 8 11 13 16 19 18 18 19 21 21 18 25 32 27 22 23 25 25 24 26 29 27 26 25 20 13 9 8 8 8 7 9 16 15 11 16 22 30 41 43 41 41 36 32 32 32 29 24 20 20 22
25 25 25 25 25 24 21 17 15 13 14 14 10 5 7 7 5 5 6 8 9 9 8 9 11 12 12 11 8 7 7 8 8 6 4 5 7 8 9 10 12 15 17 15 13 18 24 22 21 27 30 29 27 27 25 23 26 29 28 28 29 28 21 12 9 10 10 8 9 16 15 10 17 28 31 32 33 35 38 39 37 34 32 30 25 22 21 21
24 25 24 24 24 24 22 18 16 15 14 14 9 6 9 9 8 7 6 7 7 7 7 9 10 9 8 8 7 9 10 9 9 7 5 5 7 8 8 7 8 11 14 14 12 11 16 23 24 23 28 32 30 28 28 26 22 22 28 33 30 27 24 16 11 9 10 9 8 14 19 18 22 34 39 36 34 33 35 36 37 37 34 30 26 23 21 21
23 23 23 23 21 21 20 17 16 15 14 12 8 7 9 9 9 10 8 7 7 7 7 6 6 6 6 7 9 12 12 9 7 6 5 5 5 7 8 6 6 7 10 13 13 11 10 17 23 25 27 32 32 29 30 31 24 18 23 30 26 21 23 20 13 8 9 9 6 11 18 19 18 22 29 34 36 35 35 33 34 36 35 33 29 25 22 21
23 23 22 21 20 18 17 16 14 12 10 8 7 8 8 9 9 9 8 7 8 8 7 5 5 5 5 6 10 13 11 8 7 5 4 4 5 8 8 6 6 5 6 8 9 11 12 12 18 26 28 29 33 32 29 31 32 24 18 20 22 19 20 22 16 9 9 9 6 9 13 18 21 18 15 22 30 33 36 36 35 34 34 34 31 27 24 22
24 22 20 20 19 18 17 14 12 9 6 5 7 8 8 9 9 8 8 8 8 8 7 6 5 4 5 6 9 11 10 8 7 5 3 3 5 9 9 7 6 5 4 6 7 9 9 7 11 21 26 25 30 34 32 27 29 32 25 18 21 21 20 24 22 14 9 7 6 8 10 16 26 27 19 18 23 27 30 34 36 35 34 32 29 26 24 23
23 21 19 18 18 19 17 14 12 9 5 3 7 8 8 8 7 6 6 7 8 8 7 6 5 5 5 6 5 7 7 7 7 6 4 5 5 7 9 9 8 7 5 5 7 8 8 6 9 15 22 23 23 30 35 30 25 29 29 22 22 23 20 20 23 23 17 9 6 6 8 13 21 27 27 27 28 29 29 30 32 35 35 34 29 25 22 22
22 19 17 17 18 19 17 15 13 9 4 3 5 8 9 8 7 4 5 7 8 8 7 5 6 6 5 4 3 5 7 6 6 7 6 5 5 6 7 8 7 7 7 6 7 8 7 7 10 14 18 20 20 25 35 38 31 25 25 26 25 23 20 16 17 25 27 18 10 8 8 11 14 13 14 20 26 30 32 33 34 33 34 35 32 27 23 20
23 20 17 17 19 18 15 15 15 9 4 2 4 7 9 9 8 6 5 6 7 8 7 6 5 5 4 4 4 6 7 6 7 8 6 5 5 6 8 9 9 8 6 5 7 8 8 8 10 16 21 24 23 22 28 35 34 27 25 28 29 25 22 17 10 15 25 24 19 14 12 15 19 15 9 9 15 21 25 30 33 34 34 34 32 29 26 23
23 20 17 17 19 17 14 16 14 9 5 3 4 6 8 9 9 8 7 6 6 7 8 8 6 5 5 5 5 5 5 6 6 7 7 7 6 6 9 11 10 8 6 4 5 7 7 8 8 12 18 25 26 21 22 28 29 26 24 27 31 29 26 23 13 7 13 21 21 15 12 15 23 26 21 12 10 14 18 21 25 29 32 32 31 29 27 25
22 20 18 19 20 16 14 17 15 8 5 3 5 6 7 9 9 9 9 9 8 8 9 9 8 8 7 7 6 5 5 5 5 6 8 10 9 8 9 11 9 7 5 4 4 6 7 7 7 6 8 15 19 17 18 22 25 25 24 26 29 29 27 27 19 10 9 15 21 17 12 13 20 28 28 20 15 14 16 19 22 23 24 27 29 30 28 26
21 19 19 22 21 16 16 19 17 10 6 4 3 4 6 8 9 10 11 11 11 12 12 12 13 13 11 9 7 6 5 6 7 9 10 11 12 11 9 9 9 8 7 6 6 8 9 8 8 8 6 8 9 8 10 15 20 22 22 25 27 27 27 23 16 14 11 11 20 22 15 13 19 23 24 21 20 18 14 16 21 22 20 21 23 26 26 25
20 18 19 22 20 17 19 21 17 11 7 5 3 3 4 5 7 9 9 10 10 10 11 10 10 10 8 6 7 8 7 7 9 11 12 13 13 12 10 11 11 9 8 8 7 8 10 11 12 14 14 12 9 5 6 12 17 18 18 21 23 24 25 20 13 13 10 8 16 22 18 16 19 20 20 19 20 19 15 12 15 18 20 20 21 22 23 23
20 18 18 19 16 16 19 20 16 11 8 6 4 3 4 4 5 6 6 7 7 8 8 8 7 6 5 6 7 9 9 9 11 13 14 15 15 15 15 16 15 12 10 10 9 8 9 12 14 17 19 20 19 16 13 12 15 18 18 19 20 20 20 19 17 15 12 11 12 13 18 23 21 17 16 13 13 16 17 16 16 17 20 21 22 23 24 25
19 17 18 18 15 14 17 18 15 10 8 7 5 4 5 5 4 4 5 5 5 6 6 5 6 6 6 8 9 9 10 11 12 14 14 15 16 17 18 19 17 15 13 11 9 9 11 13 14 16 20 22 23 23 22 19 17 18 19 20 20 19 16 17 18 18 18 19 14 11 19 26 23 20 20 18 17 19 21 21 20 20 21 21 22 24 25 26
18 16 16 15 13 13 15 15 13 10 8 7 6 6 6 6 6 6 6 6 5 6 6 5 7 8 8 9 10 10 12 12 12 14 15 16 18 19 20 21 18 15 13 11 9 10 11 12 12 14 18 22 24 24 24 22 20 20 22 22 20 20 18 18 18 18 19 20 20 21 25 28 27 27 27 26 26 27 26 25 23 22 21 21 21 22 24 26
17 15 14 13 11 11 14 14 11 9 9 8 7 7 8 7 7 6 6 8 7 7 8 8 9 9 8 9 10 11 12 13 15 18 17 18 21 20 21 22 20 18 16 13 11 10 10 10 9 9 14 20 24 24 23 21 19 22 25 24 22 21 20 19 18 17 18 19 21 24 29 34 36 33 30 29 28 27 27 27 26 26 24 23 22 21 22 25
16 13 12 11 10 11 15 14 10 8 9 9 8 9 10 9 8 7 6 8 8 8 9 9 10 10 8 8 10 12 14 15 17 19 19 21 24 22 22 23 22 21 20 16 12 11 10 11 10 9 12 17 19 19 19 18 18 22 27 28 25 23 21 19 16 14 14 17 18 20 27 33 36 37 35 33 32 31 30 29 28 29 28 27 26 23 21 24
15 12 11 10 9 11 13 11 8 8 9 9 10 12 12 9 9 8 7 5 4 5 8 10 11 11 9 9 11 13 15 17 18 19 20 22 24 24 25 26 25 24 24 21 16 13 11 11 11 10 12 14 14 13 12 12 12 17 28 35 30 26 24 20 15 11 11 14 17 22 29 32 32 34 34 33 35 36 35 33 31 30 29 28 27 24 22 23
Wind_Direction
338 338 337 335 334 334 333 332 331 329 329 329 328 325 320 315 309 304 301 299 298 294 288 284 283 283 283 278 268 264 263 261 262 251 221 222 224 216 211 214 213 217 218 214 215 211 207 205 204 205 204 202 202 205 205 206 209 210 218 220 203 179 151 136 132 126 120 122 125 167 178 182 186 170 162 166 174 181 185 189 192 193 186 174 164 161 179 193
336 336 337 335 333 332 332 331 330 330 329 330 330 327 323 317 312 307 302 298 296 294 289 284 280 278 279 279 272 264 257 257 253 225 230 230 229 225 218 220 217 216 218 216 218 217 213 211 208 206 206 204 202 206 210 212 214 212 216 212 192 173 149 134 135 130 128 134 136 156 176 182 179 169 166 172 185 192 193 191 193 194 187 179 170 161 169 187
336 336 336 336 334 332 331 330 329 329 329 330 329 326 324 319 315 312 307 300 297 295 290 285 277 274 274 275 273 267 254 250 242 224 236 237 226 226 221 225 224 219 219 217 218 219 217 218 217 213 210 207 204 208 212 215 216 215 217 202 181 169 149 130 143 146 145 152 149 159 182 188 184 177 172 180 193 203 213 199 180 189 191 186 177 166 165 183
336 336 337 337 335 332 330 329 328 329 330 331 330 327 325 321 318 316 311 304 299 296 291 286 277 272 269 268 267 267 256 244 239 229 239 243 230 225 220 225 225 220 220 217 214 211 208 212 216 217 216 212 208 209 213 216 217 217 216 191 178 175 159 147 158 164 163 154 139 151 172 186 185 176 170 173 163 164 198 171 127 118 189 193 185 172 167 182
338 338 339 340 338 335 331 329 328 328 330 330 329 328 327 325 323 321 317 310 304 299 294 288 278 271 264 262 259 260 257 247 242 232 237 244 239 231 224 226 223 217 220 220 216 211 205 205 208 212 214 214 212 212 214 216 219 218 202 181 183 181 169 166 170 168 164 158 143 138 143 188 191 174 142 130 112 89 103 155 151 117 167 190 196 186 174 180
340 340 341 343 343 339 334 332 330 330 330 329 327 328 328 328 328 327 322 317 313 305 299 293 282 272 262 256 251 251 250 244 237 226 230 238 241 237 230 229 221 214 217 220 219 216 211 207 205 208 209 211 212 214 215 215 220 218 196 187 186 181 176 175 174 167 163 158 153 157 166 192 199 189 141 126 128 108 101 141 160 150 161 178 193 199 189 183
339 338 338 340 341 340 336 335 334 332 330 327 326 327 328 328 329 329 324 322 321 313 306 299 290 277 265 253 246 243 242 242 234 221 226 230 234 236 231 228 220 212 215 218 220 218 216 212 208 207 208 209 210 212 215 217 222 215 198 196 189 181 180 178 173 167 166 158 156 173 176 179 196 213 193 157 168 152 112 129 154 164 170 179 184 189 198 191
336 335 334 335 335 335 333 333 333 332 328 324 321 322 323 324 326 326 322 321 320 315 310 304 299 289 273 257 245 236 233 239 234 221 225 227 225 228 222 219 218 214 214 218 222 223 223 221 215 210 208 209 210 211 213 217 224 215 198 202 194 184 185 181 176 171 169 171 178 187 178 181 200 215 212 190 197 183 148 140 147 165 171 179 183 180 189 193
334 334 333 332 331 331 329 328 328 326 323 318 316 317 317 318 319 320 320 318 315 312 311 308 304 298 285 266 250 235 226 231 230 223 223 225 224 224 216 207 215 217 214 214 219 223 224 225 222 217 213 211 211 212 213 216 223 214 197 203 196 187 188 184 181 179 176 188 202 199 193 209 212 213 207 194 199 189 174 169 158 161 147 170 187 182 185 188
331 332 333 332 330 330 328 327 325 322 319 314 313 314 314 315 316 317 316 314 309 307 309 309 304 301 295 275 254 237 228 226 226 224 221 224 225 224 220 209 210 214 215 213 215 220 222 225 227 224 220 217 214 214 215 216 221 216 204 204 197 191 192 189 187 185 184 194 203 203 203 217 217 215 208 195 194 181 176 180 171 171 152 156 186 188 189 185
328 328 331 331 330 330 329 328 325 322 318 314 313 313 312 313 315 315 314 309 306 307 308 306 303 300 296 282 260 243 235 228 226 225 221 223 224 223 220 211 208 208 211 213 215 219 222 222 222 223 221 220 218 216 218 217 219 220 214 206 199 197 199 196 191 189 192 195 202 212 216 218 212 205 199 194 197 185 178 185 179 178 172 174 185 192 192 183
327 326 328 330 329 329 330 330 328 325 322 318 317 316 313 313 315 314 309 307 306 308 306 304 302 298 293 285 271 254 240 232 228 226 223 222 223 220 216 209 205 203 203 208 212 214 218 220 217 219 221 221 220 220 223 220 218 222 221 212 206 208 209 202 193 192 199 196 200 215 223 219 203 176 180 193 199 197 192 192 189 185 185 190 191 194 194 185
330 327 328 329 328 330 331 331 332 331 328 325 324 322 318 316 316 311 306 307 308 307 305 304 303 298 291 284 277 265 242 233 229 224 222 221 220 216 212 207 203 201 196 193 201 210 214 216 215 217 220 222 221 221 226 223 219 221 223 221 215 218 217 205 195 198 202 199 199 215 230 222 201 169 185 199 203 204 200 194 190 191 195 200 197 192 196 193
333 329 328 329 328 329 331 333 335 335 333 331 331 328 325 324 318 309 306 307 308 306 305 305 305 298 289 283 278 269 248 236 230 224 220 219 218 213 209 205 200 200 195 185 189 203 211 213 212 213 216 220 221 221 225 226 222 220 223 226 222 223 219 206 199 203 207 205 200 211 233 227 213 203 209 211 213 214 211 204 198 199 202 204 201 193 197 198
336 331 328 329 328 328 330 332 334 336 336 334 335 334 331 330 321 310 308 309 308 306 306 307 307 298 289 285 278 268 255 241 233 226 221 219 217 211 207 204 199 197 193 185 185 195 206 211 212 212 213 216 219 220 221 223 223 219 220 226 224 222 215 206 204 205 208 212 208 212 231 230 220 219 223 223 227 231 228 218 208 207 209 210 207 198 199 201
337 332 330 329 329 328 329 330 331 334 336 335 336 336 333 331 323 313 309 308 307 308 312 313 312 301 291 288 280 268 258 247 236 229 223 220 217 211 205 201 197 194 191 185 184 193 203 209 214 216 214 213 216 218 218 218 221 219 216 221 224 219 210 208 210 209 207 214 217 217 226 230 221 221 230 233 235 242 243 234 219 212 211 215 215 207 204 204
337 333 331 332 331 330 329 328 329 331 333 334 335 336 335 330 320 312 309 309 309 313 317 319 321 309 295 291 285 273 263 252 239 230 224 219 215 211 205 201 196 192 189 184 185 193 201 208 212 216 217 214 215 215 215 215 213 214 215 218 223 219 211 213 215 213 212 217 224 223 225 229 226 224 235 240 242 247 248 243 231 223 217 217 221 217 212 210
335 333 331 333 332 330 330 329 329 329 331 333 334 335 333 328 318 311 309 309 311 316 317 320 327 315 294 298 297 289 277 260 243 231 223 218 214 210 206 203 198 192 188 185 187 194 200 208 212 216 219 216 214 212 210 214 210 209 213 214 218 219 216 216 215 216 218 221 228 230 228 230 233 237 240 244 246 248 252 253 248 238 231 227 225 222 216 213
332 332 330 332 332 331 331 331 330 330 330 331 333 334 333 330 324 316 310 310 314 318 313 312 321 315 298 304 305 303 295 270 250 235 222 216 213 210 207 204 199 195 192 189 190 195 199 205 210 214 217 214 213 212 210 213 212 212 216 217 217 218 219 217 213 216 221 224 229 233 235 233 236 243 245 248 248 248 253 255 254 247 239 235 230 225 219 214
328 329 329 330 332 333 332 333 333 331 329 329 331 334 336 333 323 311 311 318 317 313 311 310 313 310 305 310 309 310 312 292 264 241 226 217 212 210 208 207 201 198 198 197 196 197 200 208 212 213 214 213 214 214 214 215 215 216 219 222 223 221 223 220 216 218 220 224 229 232 239 240 238 242 245 251 253 250 250 249 249 248 242 236 231 226 218 212
326 326 327 328 330 332 332 334 334 332 330 330 331 332 335 335 328 312 310 319 317 312 314 311 308 306 302 305 306 309 316 305 280 252 233 221 215 211 209 210 207 202 201 201 202 201 204 213 217 216 217 217 216 217 219 218 215 217 218 220 224 224 225 223 221 221 220 228 235 232 237 240 239 241 244 247 249 247 247 246 246 246 243 237 232 228 222 214
327 326 327 327 328 330 332 334 334 332 331 332 331 330 332 333 330 321 313 317 317 313 314 308 302 299 297 302 303 307 314 303 285 263 242 225 219 216 212 212 212 210 204 202 206 206 209 217 220 220 221 221 220 220 222 220 216 213 214 218 220 223 226 225 226 226 223 231 239 237 240 240 238 243 247 245 244 243 244 246 246 246 244 242 240 233 225 216
331 329 328 326 327 329 331 333 333 330 329 330 328 328 330 328 324 320 314 315 313 309 310 303 294 291 292 298 298 302 306 297 284 262 242 229 222 220 217 213 214 215 210 207 208 208 212 220 224 224 222 222 223 223 223 224 221 216 212 216 217 219 222 223 227 231 231 235 240 243 248 247 242 245 248 244 240 239 242 246 249 249 248 248 252 249 235 221
333 331 330 328 328 328 329 331 332 329 328 328 326 327 330 325 320 315 311 312 307 301 301 291 285 288 284 285 287 289 290 286 279 260 245 232 223 222 222 218 215 216 216 213 213 215 218 223 229 227 223 222 224 225 225 224 224 221 216 215 217 216 216 218 220 228 236 239 240 243 254 254 244 242 245 242 238 238 239 242 244 245 246 248 250 249 241 228
334 333 331 331 330 328 328 330 330 329 329 328 326 328 328 323 318 311 311 314 305 293 287 277 283 287 285 293 298 287 281 277 271 263 251 235 225 224 225 223 219 218 219 218 217 222 224 226 233 232 227 225 224 225 225 222 224 227 221 217 216 214 214 219 220 227 242 245 242 238 247 255 244 240 242 241 238 237 237 238 238 240 243 245 244 241 236 228
333 333 332 333 333 330 329 329 329 329 331 329 325 326 325 320 317 311 313 312 296 280 270 267 278 279 283 285 282 288 277 266 264 261 251 239 230 227 226 227 225 221 221 220 221 226 226 227 232 232 227 227 225 225 227 223 220 230 229 221 218 218 220 222 224 234 244 242 239 228 230 256 249 240 241 242 240 237 239 240 236 239 243 242 241 239 235 227
331 334 335 335 335 332 329 328 330 329 330 327 321 322 323 318 316 315 314 306 280 264 258 256 262 270 283 281 282 290 265 247 262 265 256 246 236 231 230 230 229 227 223 219 223 230 227 226 229 226 215 224 226 225 227 225 221 229 235 229 223 224 227 229 232 241 247 247 245 228 225 256 258 243 239 241 241 240 242 241 236 239 241 239 239 238 235 231
332 336 337 338 337 334 329 329 330 328 326 324 321 323 323 315 314 314 313 294 257 249 249 257 264 270 284 292 298 302 280 263 259 261 262 254 245 239 235 233 233 233 229 221 221 230 230 227 230 228 221 222 227 227 230 228 224 228 236 237 232 229 230 233 238 245 251 257 255 242 231 248 257 244 238 236 235 236 239 239 236 238 240 239 239 237 235 233
333 337 338 338 337 334 329 328 328 324 324 323 320 323 319 312 311 300 250 240 259 256 257 271 279 281 289 302 311 310 297 283 255 252 260 256 254 250 240 234 233 233 233 229 225 230 232 230 235 236 230 229 230 231 233 231 228 230 233 241 241 236 233 234 236 243 249 253 252 246 236 240 257 246 235 231 231 232 235 236 236 237 239 239 239 238 237 235
334 336 337 337 335 332 328 327 325 322 323 321 319 320 315 308 303 252 209 232 249 270 273 278 288 290 294 298 304 305 295 286 266 255 260 259 258 257 246 235 230 228 230 233 233 234 233 231 237 242 239 235 233 234 236 231 232 235 230 217 223 228 227 229 230 234 244 247 244 244 238 237 258 250 234 232 233 233 235 236 236 237 238 239 238 237 237 236
334 335 335 334 331 329 327 326 322 317 318 318 317 319 315 305 265 192 199 243 258 288 287 289 299 298 304 306 304 306 296 288 276 255 252 260 259 255 242 228 225 224 223 227 234 237 235 232 232 237 243 240 233 234 235 231 232 231 220 202 198 205 208 218 221 220 232 244 238 240 237 233 245 247 239 238 237 237 238 237 237 238 238 239 239 237 236 234
333 334 332 330 328 328 328 328 322 315 315 315 315 318 315 297 234 210 222 256 272 296 303 314 318 313 318 326 324 319 305 288 278 257 243 244 249 243 229 219 214 215 218 220 225 232 234 234 232 230 237 233 226 228 228 226 225 221 210 203 205 198 194 206 207 211 230 238 229 233 232 232 243 248 246 244 242 238 238 238 239 239 240 241 240 238 235 232
333 333 330 327 327 328 329 329 325 318 315 312 313 315 301 259 231 225 227 236 252 292 312 317 320 320 325 333 334 329 321 299 282 264 244 233 233 230 223 221 214 211 217 216 216 221 230 237 235 228 226 222 218 219 218 216 217 212 204 202 204 199 201 213 211 219 234 233 229 231 232 240 250 255 253 247 245 242 238 237 239 240 240 241 243 242 238 233
333 331 329 327 327 326 329 328 320 313 312 309 311 308 263 232 237 233 228 232 250 284 304 310 317 324 330 334 337 337 335 319 295 270 246 218 208 209 212 220 219 218 221 217 214 215 218 231 232 222 219 218 215 217 217 215 217 215 205 203 207 208 210 214 213 223 238 243 227 219 224 234 238 247 251 247 245 246 244 240 239 240 240 240 243 245 240 234
333 331 328 327 327 327 329 326 313 308 307 305 307 281 236 230 232 234 236 239 248 270 288 303 315 324 330 332 337 343 339 331 318 297 259 201 193 197 203 214 221 222 220 216 215 218 219 225 225 217 217 218 215 216 218 217 222 222 212 208 213 213 211 218 231 227 233 252 228 209 217 233 239 246 249 247 247 247 246 244 241 240 239 238 240 242 240 235
332 329 327 328 330 329 328 323 313 309 302 295 290 249 228 229 230 231 241 247 249 263 280 302 316 323 328 326 327 333 331 326 321 304 270 226 211 209 206 205 213 217 213 210 210 216 224 227 224 217 216 218 216 215 216 216 217 216 211 212 216 215 212 219 237 230 224 246 231 211 229 245 252 255 251 247 250 247 244 244 243 241 240 237 239 242 240 236
331 329 330 331 332 328 323 321 315 308 299 287 266 231 221 226 234 238 242 256 262 270 280 294 310 313 312 312 310 315 321 320 314 304 271 250 238 228 216 193 188 199 204 209 211 218 238 235 221 212 212 215 214 214 217 220 218 208 210 214 212 213 218 221 230 225 215 237 225 206 232 240 238 251 253 247 247 247 244 242 240 242 242 240 240 244 243 236
336 336 336 332 332 331 328 327 324 316 309 285 241 221 220 223 238 241 240 255 265 270 278 276 289 302 292 296 303 306 315 317 306 295 259 249 250 241 228 199 183 179 194 210 214 225 246 253 225 210 210 214 213 212 217 224 224 219 217 216 207 207 214 212 216 229 223 233 233 214 236 242 232 234 248 246 243 244 245 243 239 239 241 242 243 245 245 236
342 341 338 335 335 338 339 341 342 339 326 278 224 216 220 224 240 250 246 255 260 259 266 264 265 280 275 283 297 301 312 316 304 291 247 236 250 245 242 235 216 199 201 216 223 235 243 260 240 216 209 210 212 212 216 222 224 223 226 224 214 214 214 207 211 223 225 229 237 224 229 242 242 237 235 240 243 242 244 244 242 240 240 241 243 245 245 238
345 344 342 341 340 342 346 349 350 352 339 266 225 220 222 222 234 255 253 247 246 247 254 256 248 250 263 274 284 292 309 319 304 288 258 242 257 258 252 255 245 230 236 238 239 249 239 235 252 228 210 209 209 209 213 217 217 218 220 219 215 217 219 216 215 217 223 233 229 222 230 240 248 248 243 241 243 243 244 244 245 244 242 239 240 243 245 242
347 350 347 345 345 345 348 351 356 1 350 270 229 224 227 225 226 238 246 240 242 247 251 250 243 240 247 254 269 289 303 315 299 286 275 247 258 282 268 267 275 259 252 249 243 247 230 222 248 241 220 213 209 207 212 217 218 214 212 211 211 215 216 217 219 215 220 231 227 224 246 244 241 248 253 251 247 247 248 247 245 245 243 240 240 242 243 244
350 353 352 349 348 348 349 355 3 9 351 273 233 231 232 230 229 228 236 241 245 249 246 242 239 234 239 250 271 289 296 305 296 282 275 255 261 287 283 282 297 296 279 254 236 239 235 231 245 246 232 218 209 205 208 215 219 219 215 210 210 216 217 220 225 210 216 226 229 234 250 252 245 240 237 255 255 249 248 248 248 245 243 242 241 242 242 244
350 352 353 351 350 351 355 3 9 9 351 292 249 250 243 239 237 234 233 228 233 251 251 240 236 235 242 252 263 284 298 308 300 275 269 280 287 291 288 288 295 302 301 269 233 237 244 243 249 255 244 227 218 214 211 213 215 217 218 213 213 217 219 225 234 224 219 221 218 226 242 249 254 251 240 229 238 244 239 239 244 246 244 243 243 242 242 243
350 350 350 351 353 354 358 10 16 14 359 318 268 262 257 255 253 247 245 238 238 259 260 249 253 254 244 241 251 274 301 307 295 280 279 287 294 296 293 290 293 304 308 277 245 244 243 238 236 250 246 226 221 224 222 217 215 217 218 216 216 219 221 226 231 238 247 227 215 224 240 240 252 259 253 238 227 234 236 230 232 238 240 243 245 244 242 243
350 350 350 352 354 355 1 11 17 15 9 353 294 272 266 268 269 264 263 264 264 271 271 265 265 260 245 237 250 268 287 288 283 286 288 290 294 297 294 289 292 300 294 277 266 257 247 233 223 228 231 216 210 208 203 205 209 214 215 214 216 219 221 225 226 227 241 233 221 227 236 241 250 260 263 255 236 228 229 229 229 228 228 234 240 241 241 241
351 352 352 352 354 359 3 7 9 10 8 3 344 314 288 279 283 282 278 278 279 285 285 269 253 248 241 240 263 278 285 279 273 278 286 292 293 291 286 285 287 287 283 278 271 261 254 243 231 233 240 242 248 241 201 202 208 210 209 207 208 214 221 224 220 219 229 236 232 232 233 242 252 257 265 267 249 229 216 221 232 229 224 224 227 231 234 234
351 353 354 356 359 0 359 359 2 8 8 1 2 350 329 314 304 298 293 287 286 295 290 260 234 243 261 269 279 284 286 280 272 275 282 285 284 281 279 280 281 281 282 278 269 257 257 255 244 239 241 243 252 264 259 241 228 222 217 207 201 207 220 227 224 221 224 236 241 233 232 242 252 256 256 258 253 241 229 229 238 233 226 226 226 229 232 232
351 353 354 357 1 357 354 354 355 0 3 2 7 355 335 328 316 306 307 303 295 295 286 252 245 265 272 279 286 290 295 293 285 280 279 279 279 278 276 276 276 280 278 271 265 255 253 259 255 249 247 243 247 259 264 256 247 238 230 218 208 209 222 234 236 232 230 237 240 222 227 240 247 248 243 236 243 255 251 244 241 235 233 235 236 237 236 236
351 355 354 356 1 357 352 351 350 351 354 358 1 356 344 327 314 305 303 302 298 294 292 276 266 263 260 272 284 292 300 300 294 289 287 286 286 284 282 281 277 277 275 265 259 258 259 267 267 262 257 246 240 250 260 260 258 251 240 230 221 221 231 243 248 244 243 249 248 236 233 239 242 244 245 244 247 254 257 255 253 250 249 251 251 248 243 239
352 355 357 359 2 355 350 351 351 346 344 353 2 359 352 339 328 322 307 300 295 290 292 290 279 270 269 278 289 298 303 300 295 296 298 295 291 288 288 286 282 279 279 272 263 260 263 269 269 271 267 251 240 246 258 262 260 254 246 239 233 234 241 248 252 252 254 256 250 242 242 245 246 247 248 249 251 254 256 259 260 260 261 261 262 260 251 243
352 356 2 4 1 352 346 350 1 1 352 357 0 348 344 336 323 323 318 305 296 287 284 285 286 283 284 292 300 302 300 297 293 293 293 290 287 286 283 280 280 279 277 274 270 264 264 269 268 270 273 263 248 246 254 259 262 261 252 241 236 239 245 250 254 258 258 251 241 237 242 247 249 250 251 252 254 255 258 259 260 261 262 264 267 267 259 248
354 359 7 11 2 350 345 350 9 17 3 359 351 339 336 330 317 322 333 331 321 298 288 294 300 302 306 311 310 305 300 298 294 291 289 285 281 280 276 272 271 270 268 267 266 260 259 269 271 265 267 266 253 242 245 252 263 263 249 237 233 238 244 249 254 256 257 247 230 225 232 240 246 249 251 254 255 256 259 260 261 264 264 267 270 270 265 255